Zurück zum Katalog

STARLINK-36247

AktivKommunikationVLEO
NORAD 68245·PAYLOAD·🇺🇸 United States

Gestartet Mar 17, 2026 von Vandenberg Space Force Base

Loading…

Nächste Überflüge (nächste 24 Stunden)

TLE

AktuellSource: CelesTrak SupGP

Epoche: Sep 14, 2026, 15:57 UTC

1 68245C 26054P   26257.66506944  .00024527  00000+0  72425-3 0  2573
2 68245  53.1561 129.3495 0001080  99.8047 204.4225 15.34396059    12

Verfolge STARLINK-36247 in Echtzeit mit AllMySat

Download on the App Store